Time,TemperatureF,DewpointF,PressureIn,WindDirection,WindDirectionDegrees,WindSpeedMPH,WindSpeedGustMPH,Humidity,HourlyPrecipIn,Conditions,Clouds,dailyrainin,SoftwareType,DateUTC
2013-08-26 00:01:00,79.4,71.9,30.08,SE,125,5.0,6.0,78,0.00,,---,0.00,VWS V14.00,2013-08-26 05:01:00,
2013-08-26 00:06:00,79.4,71.9,30.08,SE,125,6.0,7.0,78,0.00,,---,0.00,VWS V14.00,2013-08-26 05:06:00,
2013-08-26 00:11:00,79.4,71.6,30.08,SE,125,4.0,6.0,77,0.00,,---,0.00,VWS V14.00,2013-08-26 05:11:00,
2013-08-26 00:16:00,79.4,71.6,30.08,SE,125,4.0,5.0,77,0.00,,---,0.00,VWS V14.00,2013-08-26 05:16:00,
2013-08-26 00:21:00,79.4,71.6,30.08,SE,125,2.0,5.0,77,0.00,,---,0.00,VWS V14.00,2013-08-26 05:21:00,
2013-08-26 00:26:00,79.3,71.5,30.08,SE,125,2.0,4.0,77,0.00,,---,0.00,VWS V14.00,2013-08-26 05:26:00,
2013-08-26 00:31:00,79.2,71.8,30.08,SE,125,2.0,4.0,78,0.00,,---,0.00,VWS V14.00,2013-08-26 05:31:00,
2013-08-26 00:36:00,79.1,71.7,30.08,SE,125,6.0,6.0,78,0.00,,---,0.00,VWS V14.00,2013-08-26 05:36:00,
2013-08-26 00:41:00,79.0,71.6,30.08,SE,125,5.0,6.0,78,0.00,,---,0.00,VWS V14.00,2013-08-26 05:41:00,
2013-08-26 00:46:00,78.8,71.7,30.08,SE,125,6.0,9.0,79,0.00,,---,0.00,VWS V14.00,2013-08-26 05:46:00,
2013-08-26 00:51:00,78.7,71.6,30.08,SE,125,2.0,6.0,79,0.00,,---,0.00,VWS V14.00,2013-08-26 05:51:00,
2013-08-26 00:56:00,78.7,72.0,30.08,SE,125,5.0,6.0,80,0.00,,---,0.00,VWS V14.00,2013-08-26 05:56:00,
2013-08-26 01:01:00,78.5,71.8,30.08,SE,125,2.0,6.0,80,0.00,,---,0.00,VWS V14.00,2013-08-26 06:01:00,
2013-08-26 01:06:00,78.3,72.0,30.08,SE,125,3.0,6.0,81,0.00,,---,0.00,VWS V14.00,2013-08-26 06:06:00,
2013-08-26 01:11:00,78.2,71.9,30.08,SE,125,4.0,6.0,81,0.00,,---,0.00,VWS V14.00,2013-08-26 06:11:00,
2013-08-26 01:16:00,78.0,71.7,30.08,SE,125,3.0,6.0,81,0.00,,---,0.00,VWS V14.00,2013-08-26 06:16:00,
2013-08-26 01:21:00,77.9,72.0,30.08,SE,125,3.0,5.0,82,0.00,,---,0.00,VWS V14.00,2013-08-26 06:21:00,
2013-08-26 01:26:00,77.7,71.8,30.08,SE,125,4.0,6.0,82,0.00,,---,0.00,VWS V14.00,2013-08-26 06:26:00,
2013-08-26 01:31:00,77.6,71.7,30.08,SE,125,5.0,5.0,82,0.00,,---,0.00,VWS V14.00,2013-08-26 06:31:00,
2013-08-26 01:36:00,77.6,71.7,30.08,SE,125,2.0,5.0,82,0.00,,---,0.00,VWS V14.00,2013-08-26 06:36:00,
2013-08-26 01:41:00,77.5,71.6,30.08,SE,125,2.0,5.0,82,0.00,,---,0.00,VWS V14.00,2013-08-26 06:41:00,
2013-08-26 01:46:00,77.4,71.5,30.08,SE,125,3.0,5.0,82,0.00,,---,0.00,VWS V14.00,2013-08-26 06:46:00,
2013-08-26 01:51:00,77.3,71.4,30.08,SE,125,3.0,4.0,82,0.00,,---,0.00,VWS V14.00,2013-08-26 06:51:00,
2013-08-26 01:56:00,77.2,71.3,30.08,SE,125,1.0,4.0,82,0.00,,---,0.00,VWS V14.00,2013-08-26 06:56:00,
2013-08-26 02:01:00,77.0,71.1,30.08,SE,125,0.0,4.0,82,0.00,,---,0.00,VWS V14.00,2013-08-26 07:01:00,
2013-08-26 02:06:00,76.9,71.0,30.07,SE,125,0.0,3.0,82,0.00,,---,0.00,VWS V14.00,2013-08-26 07:06:00,
2013-08-26 02:11:00,76.8,71.2,30.07,SE,125,0.0,3.0,83,0.00,,---,0.00,VWS V14.00,2013-08-26 07:11:00,
2013-08-26 02:16:00,76.6,71.1,30.07,SE,125,0.0,5.0,83,0.00,,---,0.00,VWS V14.00,2013-08-26 07:16:00,
2013-08-26 02:21:00,76.4,70.9,30.07,SE,125,0.0,4.0,83,0.00,,---,0.00,VWS V14.00,2013-08-26 07:21:00,
2013-08-26 02:26:00,76.3,71.1,30.07,SE,125,0.0,1.0,84,0.00,,---,0.00,VWS V14.00,2013-08-26 07:26:00,
2013-08-26 02:31:00,76.2,70.7,30.07,SE,125,0.0,0.0,83,0.00,,---,0.00,VWS V14.00,2013-08-26 07:31:00,
2013-08-26 02:36:00,76.1,70.9,30.08,SE,125,0.0,0.0,84,0.00,,---,0.00,VWS V14.00,2013-08-26 07:36:00,
2013-08-26 02:41:00,75.9,70.7,30.08,SE,125,0.0,0.0,84,0.00,,---,0.00,VWS V14.00,2013-08-26 07:41:00,
2013-08-26 02:46:00,75.8,70.6,30.08,SE,125,0.0,0.0,84,0.00,,---,0.00,VWS V14.00,2013-08-26 07:46:00,
2013-08-26 02:51:00,75.7,70.5,30.08,SE,125,0.0,2.0,84,0.00,,---,0.00,VWS V14.00,2013-08-26 07:51:00,
2013-08-26 02:56:00,75.5,70.3,30.08,SE,125,0.0,0.0,84,0.00,,---,0.00,VWS V14.00,2013-08-26 07:56:00,
2013-08-26 03:01:00,75.4,70.2,30.08,SE,125,0.0,0.0,84,0.00,,---,0.00,VWS V14.00,2013-08-26 08:01:00,
2013-08-26 03:06:00,75.2,70.0,30.08,SE,125,0.0,0.0,84,0.00,,---,0.00,VWS V14.00,2013-08-26 08:06:00,
2013-08-26 03:11:00,75.2,70.4,30.08,SE,125,0.0,0.0,85,0.00,,---,0.00,VWS V14.00,2013-08-26 08:11:00,
2013-08-26 03:16:00,75.1,70.3,30.08,SE,125,0.0,0.0,85,0.00,,---,0.00,VWS V14.00,2013-08-26 08:16:00,
2013-08-26 03:21:00,75.0,70.2,30.08,SE,125,0.0,3.0,85,0.00,,---,0.00,VWS V14.00,2013-08-26 08:21:00,
2013-08-26 03:26:00,74.9,70.1,30.08,SE,125,0.0,0.0,85,0.00,,---,0.00,VWS V14.00,2013-08-26 08:26:00,
2013-08-26 03:31:00,74.8,70.0,30.08,SE,125,0.0,0.0,85,0.00,,---,0.00,VWS V14.00,2013-08-26 08:31:00,
2013-08-26 03:36:00,74.7,69.9,30.08,SE,125,0.0,0.0,85,0.00,,---,0.00,VWS V14.00,2013-08-26 08:36:00,
2013-08-26 03:41:00,74.6,69.8,30.08,SE,125,0.0,0.0,85,0.00,,---,0.00,VWS V14.00,2013-08-26 08:41:00,
2013-08-26 03:46:00,74.6,69.8,30.08,SE,125,0.0,0.0,85,0.00,,---,0.00,VWS V14.00,2013-08-26 08:46:00,
2013-08-26 03:51:00,74.5,69.7,30.08,SE,125,0.0,0.0,85,0.00,,---,0.00,VWS V14.00,2013-08-26 08:51:00,
2013-08-26 03:56:00,74.4,69.6,30.08,SE,125,0.0,0.0,85,0.00,,---,0.00,VWS V14.00,2013-08-26 08:56:00,
2013-08-26 04:01:00,74.4,69.6,30.08,SE,125,0.0,0.0,85,0.00,,---,0.00,VWS V14.00,2013-08-26 09:01:00,
2013-08-26 04:06:00,74.3,69.5,30.08,SE,125,0.0,0.0,85,0.00,,---,0.00,VWS V14.00,2013-08-26 09:06:00,
2013-08-26 04:11:00,74.3,69.5,30.07,SE,125,2.0,3.0,85,0.00,,---,0.00,VWS V14.00,2013-08-26 09:11:00,
2013-08-26 04:16:00,74.2,69.8,30.08,SE,125,2.0,4.0,86,0.00,,---,0.00,VWS V14.00,2013-08-26 09:16:00,
2013-08-26 04:21:00,74.2,69.8,30.08,SE,125,3.0,5.0,86,0.00,,---,0.00,VWS V14.00,2013-08-26 09:21:00,
2013-08-26 04:26:00,74.1,69.7,30.07,SE,125,0.0,4.0,86,0.00,,---,0.00,VWS V14.00,2013-08-26 09:26:00,
2013-08-26 04:31:00,74.1,69.7,30.07,SE,125,0.0,4.0,86,0.00,,---,0.00,VWS V14.00,2013-08-26 09:31:00,
2013-08-26 04:36:00,74.1,69.7,30.07,SE,125,0.0,0.0,86,0.00,,---,0.00,VWS V14.00,2013-08-26 09:36:00,
2013-08-26 04:41:00,74.0,69.6,30.08,SE,125,0.0,0.0,86,0.00,,---,0.00,VWS V14.00,2013-08-26 09:41:00,
2013-08-26 04:46:00,73.9,69.4,30.08,SE,125,0.0,0.0,86,0.00,,---,0.00,VWS V14.00,2013-08-26 09:46:00,
2013-08-26 04:51:00,73.9,69.4,30.08,SE,125,0.0,0.0,86,0.00,,---,0.00,VWS V14.00,2013-08-26 09:51:00,
2013-08-26 04:56:00,73.8,69.3,30.08,SE,125,0.0,0.0,86,0.00,,---,0.00,VWS V14.00,2013-08-26 09:56:00,
2013-08-26 05:01:00,73.7,69.3,30.08,SE,125,0.0,0.0,86,0.00,,---,0.00,VWS V14.00,2013-08-26 10:01:00,
2013-08-26 05:06:00,73.7,69.3,30.08,SE,125,0.0,0.0,86,0.00,,---,0.00,VWS V14.00,2013-08-26 10:06:00,
2013-08-26 05:11:00,73.6,69.2,30.08,SE,125,0.0,0.0,86,0.00,,---,0.00,VWS V14.00,2013-08-26 10:11:00,
2013-08-26 05:16:00,73.6,69.2,30.08,SE,125,0.0,0.0,86,0.00,,---,0.00,VWS V14.00,2013-08-26 10:16:00,
2013-08-26 05:21:00,73.5,69.1,30.08,SE,125,0.0,0.0,86,0.00,,---,0.00,VWS V14.00,2013-08-26 10:21:00,
2013-08-26 05:26:00,73.5,69.1,30.08,SE,125,0.0,0.0,86,0.00,,---,0.00,VWS V14.00,2013-08-26 10:26:00,
2013-08-26 05:31:00,73.5,69.1,30.08,SE,125,0.0,0.0,86,0.00,,---,0.00,VWS V14.00,2013-08-26 10:31:00,
2013-08-26 05:36:00,73.4,69.0,30.08,SE,125,0.0,0.0,86,0.00,,---,0.00,VWS V14.00,2013-08-26 10:36:00,
2013-08-26 05:41:00,73.3,68.9,30.08,SE,125,0.0,0.0,86,0.00,,---,0.00,VWS V14.00,2013-08-26 10:41:00,
2013-08-26 05:46:00,73.3,68.9,30.08,SE,125,0.0,0.0,86,0.00,,---,0.00,VWS V14.00,2013-08-26 10:46:00,
2013-08-26 05:51:00,73.3,68.9,30.08,SE,125,0.0,0.0,86,0.00,,---,0.00,VWS V14.00,2013-08-26 10:51:00,
2013-08-26 05:56:00,73.2,68.8,30.08,SE,125,0.0,0.0,86,0.00,,---,0.00,VWS V14.00,2013-08-26 10:56:00,
2013-08-26 06:01:00,73.1,69.0,30.08,SE,125,0.0,0.0,87,0.00,,---,0.00,VWS V14.00,2013-08-26 11:01:00,
2013-08-26 06:06:00,73.1,68.7,30.09,SE,125,0.0,0.0,86,0.00,,---,0.00,VWS V14.00,2013-08-26 11:06:00,
2013-08-26 06:11:00,73.0,68.6,30.09,SE,125,0.0,0.0,86,0.00,,---,0.00,VWS V14.00,2013-08-26 11:11:00,
2013-08-26 06:16:00,72.9,68.5,30.09,SE,125,0.0,0.0,86,0.00,,---,0.00,VWS V14.00,2013-08-26 11:16:00,
2013-08-26 06:21:00,72.9,68.5,30.09,SE,125,0.0,0.0,86,0.00,,---,0.00,VWS V14.00,2013-08-26 11:21:00,
2013-08-26 06:26:00,72.8,68.7,30.09,SE,125,0.0,0.0,87,0.00,,---,0.00,VWS V14.00,2013-08-26 11:26:00,
2013-08-26 06:31:00,72.7,68.6,30.09,SE,125,0.0,0.0,87,0.00,,---,0.00,VWS V14.00,2013-08-26 11:31:00,
2013-08-26 06:36:00,72.7,68.6,30.09,SE,125,0.0,0.0,87,0.00,,---,0.00,VWS V14.00,2013-08-26 11:36:00,
2013-08-26 06:41:00,72.6,68.5,30.09,SE,125,0.0,0.0,87,0.00,,---,0.00,VWS V14.00,2013-08-26 11:41:00,
2013-08-26 06:46:00,72.5,68.4,30.09,SE,125,0.0,0.0,87,0.00,,---,0.00,VWS V14.00,2013-08-26 11:46:00,
2013-08-26 06:51:00,72.4,68.3,30.10,SE,125,0.0,0.0,87,0.00,,---,0.00,VWS V14.00,2013-08-26 11:51:00,
2013-08-26 06:56:00,72.3,68.2,30.10,SE,125,0.0,0.0,87,0.00,,---,0.00,VWS V14.00,2013-08-26 11:56:00,
2013-08-26 07:01:00,72.1,68.0,30.10,SE,125,0.0,0.0,87,0.00,,---,0.00,VWS V14.00,2013-08-26 12:01:00,
2013-08-26 07:06:00,72.0,67.9,30.10,SE,125,0.0,0.0,87,0.00,,---,0.00,VWS V14.00,2013-08-26 12:06:00,
2013-08-26 07:11:00,72.0,67.9,30.11,SE,125,0.0,0.0,87,0.00,,---,0.00,VWS V14.00,2013-08-26 12:11:00,
2013-08-26 07:16:00,71.9,68.2,30.11,SE,125,0.0,0.0,88,0.00,,---,0.00,VWS V14.00,2013-08-26 12:16:00,
2013-08-26 07:21:00,71.8,68.1,30.11,SE,125,0.0,0.0,88,0.00,,---,0.00,VWS V14.00,2013-08-26 12:21:00,
2013-08-26 07:26:00,71.7,68.0,30.11,SE,125,0.0,0.0,88,0.00,,---,0.00,VWS V14.00,2013-08-26 12:26:00,
2013-08-26 07:31:00,71.7,68.0,30.11,SE,125,0.0,0.0,88,0.00,,---,0.00,VWS V14.00,2013-08-26 12:31:00,
2013-08-26 07:36:00,71.9,68.5,30.11,SE,125,0.0,0.0,89,0.00,,---,0.00,VWS V14.00,2013-08-26 12:36:00,
2013-08-26 07:41:00,72.0,68.6,30.11,SE,125,0.0,0.0,89,0.00,,---,0.00,VWS V14.00,2013-08-26 12:41:00,
2013-08-26 07:46:00,72.3,68.9,30.11,SE,125,0.0,0.0,89,0.00,,---,0.00,VWS V14.00,2013-08-26 12:46:00,
2013-08-26 07:51:00,72.6,69.5,30.11,SE,125,0.0,2.0,90,0.00,,---,0.00,VWS V14.00,2013-08-26 12:51:00,
2013-08-26 07:56:00,73.0,69.6,30.11,SE,125,0.0,3.0,89,0.00,,---,0.00,VWS V14.00,2013-08-26 12:56:00,
2013-08-26 08:01:00,73.4,70.0,30.11,SE,125,0.0,1.0,89,0.00,,---,0.00,VWS V14.00,2013-08-26 13:01:00,
2013-08-26 08:06:00,73.8,70.4,30.11,SE,125,3.0,4.0,89,0.00,,---,0.00,VWS V14.00,2013-08-26 13:06:00,
2013-08-26 08:11:00,74.3,70.5,30.11,SE,125,1.0,3.0,88,0.00,,---,0.00,VWS V14.00,2013-08-26 13:11:00,
2013-08-26 08:16:00,74.8,71.0,30.11,SE,125,2.0,6.0,88,0.00,,---,0.00,VWS V14.00,2013-08-26 13:16:00,
2013-08-26 08:21:00,75.3,71.2,30.11,SE,125,3.0,4.0,87,0.00,,---,0.00,VWS V14.00,2013-08-26 13:21:00,
2013-08-26 08:26:00,75.8,71.0,30.11,SE,125,3.0,7.0,85,0.00,,---,0.00,VWS V14.00,2013-08-26 13:26:00,
2013-08-26 08:31:00,76.4,71.2,30.11,SE,131,6.0,8.0,84,0.00,,---,0.00,VWS V14.00,2013-08-26 13:31:00,
2013-08-26 08:36:00,76.9,71.0,30.11,SE,132,6.0,7.0,82,0.00,,---,0.00,VWS V14.00,2013-08-26 13:36:00,
2013-08-26 08:41:00,77.4,71.1,30.11,SE,143,6.0,11.0,81,0.00,,---,0.00,VWS V14.00,2013-08-26 13:41:00,
2013-08-26 08:46:00,77.8,71.1,30.11,SE,146,4.0,11.0,80,0.00,,---,0.00,VWS V14.00,2013-08-26 13:46:00,
2013-08-26 08:51:00,78.2,71.5,30.11,SSE,149,9.0,12.0,80,0.00,,---,0.00,VWS V14.00,2013-08-26 13:51:00,
2013-08-26 08:56:00,78.7,71.3,30.11,SSE,152,4.0,10.0,78,0.00,,---,0.00,VWS V14.00,2013-08-26 13:56:00,
2013-08-26 09:01:00,78.9,71.5,30.12,SSE,155,4.0,10.0,78,0.00,,---,0.00,VWS V14.00,2013-08-26 14:01:00,
2013-08-26 09:06:00,79.2,71.8,30.12,SSE,161,7.0,12.0,78,0.00,,---,0.00,VWS V14.00,2013-08-26 14:06:00,
2013-08-26 09:11:00,79.4,71.6,30.12,SSE,168,10.0,13.0,77,0.00,,---,0.00,VWS V14.00,2013-08-26 14:11:00,
2013-08-26 09:16:00,79.5,71.3,30.12,South,174,10.0,12.0,76,0.00,,---,0.00,VWS V14.00,2013-08-26 14:16:00,
2013-08-26 09:21:00,79.7,71.9,30.12,South,170,8.0,9.0,77,0.00,,---,0.00,VWS V14.00,2013-08-26 14:21:00,
2013-08-26 09:26:00,80.0,71.8,30.12,SSE,165,9.0,10.0,76,0.00,,---,0.00,VWS V14.00,2013-08-26 14:26:00,
2013-08-26 09:31:00,80.3,71.7,30.12,SSE,164,7.0,10.0,75,0.00,,---,0.00,VWS V14.00,2013-08-26 14:31:00,
2013-08-26 09:36:00,80.7,72.0,30.12,SSE,167,9.0,10.0,75,0.00,,---,0.00,VWS V14.00,2013-08-26 14:36:00,
2013-08-26 09:41:00,81.1,72.0,30.11,South,170,6.0,10.0,74,0.00,,---,0.00,VWS V14.00,2013-08-26 14:41:00,
2013-08-26 09:46:00,81.5,72.0,30.12,SSE,167,7.0,11.0,73,0.00,,---,0.00,VWS V14.00,2013-08-26 14:46:00,
2013-08-26 09:51:00,81.8,72.3,30.12,South,175,9.0,10.0,73,0.00,,---,0.00,VWS V14.00,2013-08-26 14:51:00,
2013-08-26 09:56:00,82.1,71.8,30.12,South,182,5.0,12.0,71,0.00,,---,0.00,VWS V14.00,2013-08-26 14:56:00,
2013-08-26 10:01:00,82.4,72.1,30.12,South,182,9.0,11.0,71,0.00,,---,0.00,VWS V14.00,2013-08-26 15:01:00,
2013-08-26 10:05:00,82.6,72.2,30.12,South,184,10.0,12.0,71,0.00,,---,0.00,VWS V14.00,2013-08-26 15:05:00,
2013-08-26 10:10:00,82.9,72.5,30.12,South,178,7.0,14.0,71,0.00,,---,0.00,VWS V14.00,2013-08-26 15:10:00,
2013-08-26 10:15:00,83.2,72.4,30.12,South,184,4.0,8.0,70,0.00,,---,0.00,VWS V14.00,2013-08-26 15:15:00,
2013-08-26 10:20:00,83.6,72.8,30.12,South,188,8.0,12.0,70,0.00,,---,0.00,VWS V14.00,2013-08-26 15:20:00,
2013-08-26 10:25:00,83.8,72.6,30.12,South,189,6.0,11.0,69,0.00,,---,0.00,VWS V14.00,2013-08-26 15:25:00,
2013-08-26 10:31:00,83.9,72.2,30.12,SSW,205,11.0,13.0,68,0.00,,---,0.00,VWS V14.00,2013-08-26 15:31:00,
2013-08-26 10:35:00,84.0,73.2,30.12,SSW,192,7.0,12.0,70,0.00,,---,0.00,VWS V14.00,2013-08-26 15:35:00,
2013-08-26 10:40:00,84.2,72.1,30.12,SSW,193,9.0,13.0,67,0.00,,---,0.00,VWS V14.00,2013-08-26 15:40:00,
2013-08-26 10:45:00,84.3,72.2,30.12,South,180,6.0,15.0,67,0.00,,---,0.00,VWS V14.00,2013-08-26 15:45:00,
2013-08-26 10:50:00,84.7,73.0,30.12,South,184,7.0,12.0,68,0.00,,---,0.00,VWS V14.00,2013-08-26 15:50:00,
2013-08-26 10:55:00,84.9,72.7,30.12,SSW,195,9.0,13.0,67,0.00,,---,0.00,VWS V14.00,2013-08-26 15:55:00,
2013-08-26 11:00:00,85.0,72.8,30.12,SSW,205,7.0,12.0,67,0.00,,---,0.00,VWS V14.00,2013-08-26 16:00:00,
2013-08-26 11:05:00,85.1,72.9,30.12,South,190,7.0,13.0,67,0.00,,---,0.00,VWS V14.00,2013-08-26 16:05:00,
2013-08-26 11:10:00,85.3,73.1,30.12,SSW,203,4.0,11.0,67,0.00,,---,0.00,VWS V14.00,2013-08-26 16:10:00,
2013-08-26 11:15:00,85.5,72.8,30.12,South,190,9.0,12.0,66,0.00,,---,0.00,VWS V14.00,2013-08-26 16:15:00,
2013-08-26 11:20:00,85.7,72.6,30.12,South,180,7.0,11.0,65,0.00,,---,0.00,VWS V14.00,2013-08-26 16:20:00,
2013-08-26 11:25:00,86.0,72.9,30.12,South,180,10.0,14.0,65,0.00,,---,0.00,VWS V14.00,2013-08-26 16:25:00,
2013-08-26 11:30:00,86.3,73.2,30.12,South,182,5.0,13.0,65,0.00,,---,0.00,VWS V14.00,2013-08-26 16:30:00,
2013-08-26 11:35:00,86.7,73.5,30.12,South,173,5.0,11.0,65,0.00,,---,0.00,VWS V14.00,2013-08-26 16:35:00,
2013-08-26 11:40:00,86.9,72.8,30.12,South,182,7.0,11.0,63,0.00,,---,0.00,VWS V14.00,2013-08-26 16:40:00,
2013-08-26 11:45:00,87.0,73.4,30.12,South,186,9.0,13.0,64,0.00,,---,0.00,VWS V14.00,2013-08-26 16:45:00,
2013-08-26 11:50:00,87.1,73.4,30.12,SSW,197,4.0,12.0,64,0.00,,---,0.00,VWS V14.00,2013-08-26 16:50:00,
2013-08-26 11:55:00,87.3,72.7,30.12,South,184,10.0,13.0,62,0.00,,---,0.00,VWS V14.00,2013-08-26 16:55:00,
2013-08-26 12:00:00,87.4,72.8,30.12,South,176,5.0,13.0,62,0.00,,---,0.00,VWS V14.00,2013-08-26 17:00:00,
2013-08-26 12:05:00,87.6,73.5,30.12,South,179,9.0,13.0,63,0.00,,---,0.00,VWS V14.00,2013-08-26 17:05:00,
2013-08-26 12:10:00,87.7,73.1,30.11,South,180,7.0,9.0,62,0.00,,---,0.00,VWS V14.00,2013-08-26 17:10:00,
2013-08-26 12:15:00,88.0,74.3,30.11,South,178,4.0,8.0,64,0.00,,---,0.00,VWS V14.00,2013-08-26 17:15:00,
2013-08-26 12:20:00,88.3,74.1,30.11,South,171,3.0,11.0,63,0.00,,---,0.00,VWS V14.00,2013-08-26 17:20:00,
2013-08-26 12:25:00,88.6,74.9,30.11,South,170,7.0,7.0,64,0.00,,---,0.00,VWS V14.00,2013-08-26 17:25:00,
2013-08-26 12:30:00,88.7,73.5,30.11,South,185,8.0,11.0,61,0.00,,---,0.00,VWS V14.00,2013-08-26 17:30:00,
2013-08-26 12:35:00,88.4,74.2,30.11,South,187,3.0,10.0,63,0.00,,---,0.00,VWS V14.00,2013-08-26 17:35:00,
2013-08-26 12:40:00,88.4,74.2,30.11,South,184,4.0,10.0,63,0.00,,---,0.00,VWS V14.00,2013-08-26 17:40:00,
2013-08-26 12:45:00,88.6,72.9,30.11,SSW,197,7.0,12.0,60,0.00,,---,0.00,VWS V14.00,2013-08-26 17:45:00,
2013-08-26 12:50:00,88.8,74.1,30.11,SSW,200,9.0,10.0,62,0.00,,---,0.00,VWS V14.00,2013-08-26 17:50:00,
2013-08-26 12:55:00,88.8,73.6,30.11,SSW,198,3.0,11.0,61,0.00,,---,0.00,VWS V14.00,2013-08-26 17:55:00,
2013-08-26 13:00:00,88.8,73.6,30.10,SSW,198,3.0,6.0,61,0.00,,---,0.00,VWS V14.00,2013-08-26 18:00:00,
2013-08-26 13:05:00,89.0,73.8,30.10,SSW,202,7.0,12.0,61,0.00,,---,0.00,VWS V14.00,2013-08-26 18:05:00,
2013-08-26 13:10:00,89.2,73.0,30.10,South,177,4.0,11.0,59,0.00,,---,0.00,VWS V14.00,2013-08-26 18:10:00,
2013-08-26 13:15:00,89.4,73.7,30.10,SSW,196,5.0,10.0,60,0.00,,---,0.00,VWS V14.00,2013-08-26 18:15:00,
2013-08-26 13:20:00,89.5,74.3,30.10,South,171,4.0,10.0,61,0.00,,---,0.00,VWS V14.00,2013-08-26 18:20:00,
2013-08-26 13:25:00,89.7,74.0,30.10,South,170,5.0,9.0,60,0.00,,---,0.00,VWS V14.00,2013-08-26 18:25:00,
2013-08-26 13:30:00,89.9,74.7,30.10,South,171,4.0,7.0,61,0.00,,---,0.00,VWS V14.00,2013-08-26 18:30:00,
2013-08-26 13:35:00,90.2,75.9,30.10,SSW,200,8.0,13.0,63,0.00,,---,0.00,VWS V14.00,2013-08-26 18:35:00,
2013-08-26 13:40:00,90.1,74.3,30.10,SSW,207,6.0,10.0,60,0.00,,---,0.00,VWS V14.00,2013-08-26 18:40:00,
2013-08-26 13:45:00,90.1,73.8,30.09,SSW,205,5.0,7.0,59,0.00,,---,0.00,VWS V14.00,2013-08-26 18:45:00,
2013-08-26 13:50:00,90.2,74.9,30.09,SSW,205,2.0,6.0,61,0.00,,---,0.00,VWS V14.00,2013-08-26 18:50:00,
2013-08-26 13:55:00,90.3,74.0,30.09,SSW,198,5.0,11.0,59,0.00,,---,0.00,VWS V14.00,2013-08-26 18:55:00,
2013-08-26 14:00:00,90.5,73.7,30.09,SSW,192,7.0,9.0,58,0.00,,---,0.00,VWS V14.00,2013-08-26 19:00:00,
2013-08-26 14:05:00,90.2,73.9,30.09,SSW,194,3.0,9.0,59,0.00,,---,0.00,VWS V14.00,2013-08-26 19:05:00,
2013-08-26 14:10:00,90.1,73.3,30.09,SSW,194,5.0,7.0,58,0.00,,---,0.00,VWS V14.00,2013-08-26 19:10:00,
2013-08-26 14:15:00,90.2,74.9,30.08,South,182,4.0,11.0,61,0.00,,---,0.00,VWS V14.00,2013-08-26 19:15:00,
2013-08-26 14:20:00,90.5,73.7,30.08,South,180,6.0,9.0,58,0.00,,---,0.00,VWS V14.00,2013-08-26 19:20:00,
2013-08-26 14:25:00,90.6,73.8,30.08,SSE,162,6.0,10.0,58,0.00,,---,0.00,VWS V14.00,2013-08-26 19:25:00,
2013-08-26 14:30:00,90.4,72.1,30.08,SSE,155,4.0,9.0,55,0.00,,---,0.00,VWS V14.00,2013-08-26 19:30:00,
2013-08-26 14:35:00,90.3,73.5,30.08,SSE,154,9.0,10.0,58,0.00,,---,0.00,VWS V14.00,2013-08-26 19:35:00,
2013-08-26 14:40:00,90.5,74.2,30.07,South,180,6.0,11.0,59,0.00,,---,0.00,VWS V14.00,2013-08-26 19:40:00,
2013-08-26 14:45:00,90.5,72.7,30.07,SSE,148,4.0,11.0,56,0.00,,---,0.00,VWS V14.00,2013-08-26 19:45:00,
2013-08-26 14:50:00,90.6,73.3,30.07,SSE,148,9.0,9.0,57,0.00,,---,0.00,VWS V14.00,2013-08-26 19:50:00,
2013-08-26 14:55:00,90.8,72.4,30.07,SSE,150,4.0,10.0,55,0.00,,---,0.00,VWS V14.00,2013-08-26 19:55:00,
2013-08-26 15:00:00,91.0,73.1,30.06,South,185,7.0,14.0,56,0.00,,---,0.00,VWS V14.00,2013-08-26 20:00:00,
2013-08-26 15:05:00,91.2,72.8,30.07,South,174,7.0,14.0,55,0.00,,---,0.00,VWS V14.00,2013-08-26 20:05:00,
2013-08-26 15:10:00,91.3,72.9,30.06,SSE,157,8.0,11.0,55,0.00,,---,0.00,VWS V14.00,2013-08-26 20:10:00,
2013-08-26 15:15:00,91.3,72.9,30.06,SSE,159,4.0,11.0,55,0.00,,---,0.00,VWS V14.00,2013-08-26 20:15:00,
2013-08-26 15:20:00,91.3,73.4,30.06,South,171,5.0,12.0,56,0.00,,---,0.00,VWS V14.00,2013-08-26 20:20:00,
2013-08-26 15:25:00,91.5,74.1,30.06,South,182,6.0,12.0,57,0.00,,---,0.00,VWS V14.00,2013-08-26 20:25:00,
2013-08-26 15:30:00,91.7,73.2,30.06,South,177,3.0,10.0,55,0.00,,---,0.00,VWS V14.00,2013-08-26 20:30:00,
2013-08-26 15:35:00,91.8,73.9,30.06,SSE,165,5.0,12.0,56,0.00,,---,0.00,VWS V14.00,2013-08-26 20:35:00,
2013-08-26 15:40:00,91.8,72.8,30.05,South,191,10.0,12.0,54,0.00,,---,0.00,VWS V14.00,2013-08-26 20:40:00,
2013-08-26 15:45:00,91.8,73.3,30.05,SSW,192,7.0,11.0,55,0.00,,---,0.00,VWS V14.00,2013-08-26 20:45:00,
2013-08-26 15:50:00,91.8,73.9,30.05,South,184,3.0,10.0,56,0.00,,---,0.00,VWS V14.00,2013-08-26 20:50:00,
2013-08-26 15:55:00,91.8,74.4,30.05,South,181,7.0,7.0,57,0.00,,---,0.00,VWS V14.00,2013-08-26 20:55:00,
2013-08-26 16:00:00,91.8,72.8,30.05,South,173,4.0,8.0,54,0.00,,---,0.00,VWS V14.00,2013-08-26 21:00:00,
2013-08-26 16:05:00,91.8,73.9,30.05,SSE,159,10.0,10.0,56,0.00,,---,0.00,VWS V14.00,2013-08-26 21:05:00,
2013-08-26 16:10:00,91.5,72.0,30.04,SSE,150,7.0,13.0,53,0.00,,---,0.00,VWS V14.00,2013-08-26 21:10:00,
2013-08-26 16:15:00,91.5,72.5,30.04,SSE,160,9.0,11.0,54,0.00,,---,0.00,VWS V14.00,2013-08-26 21:15:00,
2013-08-26 16:20:00,91.5,72.0,30.04,SSE,167,5.0,11.0,53,0.00,,---,0.00,VWS V14.00,2013-08-26 21:20:00,
2013-08-26 16:25:00,91.5,71.4,30.04,South,169,5.0,9.0,52,0.00,,---,0.00,VWS V14.00,2013-08-26 21:25:00,
2013-08-26 16:30:00,91.5,72.0,30.04,SSE,165,5.0,12.0,53,0.00,,---,0.00,VWS V14.00,2013-08-26 21:30:00,
2013-08-26 16:35:00,91.3,72.3,30.04,SE,137,8.0,12.0,54,0.00,,---,0.00,VWS V14.00,2013-08-26 21:35:00,
2013-08-26 16:40:00,91.1,72.7,30.03,SE,137,5.0,8.0,55,0.00,,---,0.00,VWS V14.00,2013-08-26 21:40:00,
2013-08-26 16:45:00,91.3,71.8,30.03,SSE,159,7.0,12.0,53,0.00,,---,0.00,VWS V14.00,2013-08-26 21:45:00,
2013-08-26 16:50:00,91.4,71.9,30.03,SSE,159,4.0,7.0,53,0.00,,---,0.00,VWS V14.00,2013-08-26 21:50:00,
2013-08-26 16:55:00,91.4,71.3,30.03,SSE,161,1.0,5.0,52,0.00,,---,0.00,VWS V14.00,2013-08-26 21:55:00,
2013-08-26 17:00:00,91.7,72.7,30.03,SSE,161,3.0,5.0,54,0.00,,---,0.00,VWS V14.00,2013-08-26 22:00:00,
2013-08-26 17:05:00,91.5,72.5,30.02,SSE,153,6.0,7.0,54,0.00,,---,0.00,VWS V14.00,2013-08-26 22:05:00,
2013-08-26 17:10:00,91.2,71.7,30.03,SSE,151,4.0,10.0,53,0.00,,---,0.00,VWS V14.00,2013-08-26 22:10:00,
2013-08-26 17:15:00,91.2,72.2,30.03,SSE,151,1.0,7.0,54,0.00,,---,0.00,VWS V14.00,2013-08-26 22:15:00,
2013-08-26 17:20:00,91.3,73.4,30.02,SE,146,6.0,9.0,56,0.00,,---,0.00,VWS V14.00,2013-08-26 22:20:00,
2013-08-26 17:25:00,90.9,72.0,30.02,SE,139,6.0,10.0,54,0.00,,---,0.00,VWS V14.00,2013-08-26 22:25:00,
2013-08-26 17:30:00,90.5,71.6,30.02,SE,139,5.0,7.0,54,0.00,,---,0.00,VWS V14.00,2013-08-26 22:30:00,
2013-08-26 17:35:00,90.6,71.7,30.02,SE,139,3.0,7.0,54,0.00,,---,0.00,VWS V14.00,2013-08-26 22:35:00,
2013-08-26 17:40:00,90.6,71.7,30.02,SE,139,4.0,9.0,54,0.00,,---,0.00,VWS V14.00,2013-08-26 22:40:00,
2013-08-26 17:45:00,90.5,72.1,30.02,SE,139,5.0,7.0,55,0.00,,---,0.00,VWS V14.00,2013-08-26 22:45:00,
2013-08-26 17:50:00,90.4,73.1,30.02,SE,139,3.0,7.0,57,0.00,,---,0.00,VWS V14.00,2013-08-26 22:50:00,
2013-08-26 17:55:00,90.3,71.9,30.02,SE,139,7.0,8.0,55,0.00,,---,0.00,VWS V14.00,2013-08-26 22:55:00,
2013-08-26 18:00:00,90.2,72.4,30.02,SE,140,2.0,7.0,56,0.00,,---,0.00,VWS V14.00,2013-08-26 23:00:00,
2013-08-26 18:05:00,90.3,72.5,30.01,SE,140,4.0,5.0,56,0.00,,---,0.00,VWS V14.00,2013-08-26 23:05:00,
2013-08-26 18:10:00,90.2,72.9,30.01,SE,139,4.0,7.0,57,0.00,,---,0.00,VWS V14.00,2013-08-26 23:10:00,
2013-08-26 18:15:00,90.0,72.2,30.01,SE,139,3.0,6.0,56,0.00,,---,0.00,VWS V14.00,2013-08-26 23:15:00,
2013-08-26 18:20:00,89.9,72.6,30.01,SE,139,3.0,5.0,57,0.00,,---,0.00,VWS V14.00,2013-08-26 23:20:00,
2013-08-26 18:25:00,89.9,73.7,30.01,SE,139,2.0,3.0,59,0.00,,---,0.00,VWS V14.00,2013-08-26 23:25:00,
2013-08-26 18:30:00,89.9,73.7,30.01,SE,139,0.0,4.0,59,0.00,,---,0.00,VWS V14.00,2013-08-26 23:30:00,
2013-08-26 18:35:00,89.8,73.6,30.01,SE,139,5.0,6.0,59,0.00,,---,0.00,VWS V14.00,2013-08-26 23:35:00,
2013-08-26 18:40:00,89.6,73.9,30.01,SE,139,2.0,5.0,60,0.00,,---,0.00,VWS V14.00,2013-08-26 23:40:00,
2013-08-26 18:45:00,89.3,73.6,30.01,SE,139,0.0,5.0,60,0.00,,---,0.00,VWS V14.00,2013-08-26 23:45:00,
2013-08-26 18:50:00,88.9,74.2,30.01,SE,139,1.0,4.0,62,0.00,,---,0.00,VWS V14.00,2013-08-26 23:50:00,
2013-08-26 18:55:00,88.6,74.4,30.01,SE,139,2.0,4.0,63,0.00,,---,0.00,VWS V14.00,2013-08-26 23:55:00,
2013-08-26 19:00:00,88.1,73.4,30.01,SE,139,4.0,4.0,62,0.00,,---,0.00,VWS V14.00,2013-08-27 00:00:00,
2013-08-26 19:05:00,87.8,73.6,30.01,SE,139,5.0,5.0,63,0.00,,---,0.00,VWS V14.00,2013-08-27 00:05:00,
2013-08-26 19:10:00,87.5,73.8,30.01,SE,139,1.0,4.0,64,0.00,,---,0.00,VWS V14.00,2013-08-27 00:10:00,
2013-08-26 19:15:00,87.2,74.5,30.00,SE,139,0.0,1.0,66,0.00,,---,0.00,VWS V14.00,2013-08-27 00:15:00,
2013-08-26 19:20:00,86.8,74.1,30.00,SE,139,2.0,3.0,66,0.00,,---,0.00,VWS V14.00,2013-08-27 00:20:00,
2013-08-26 19:25:00,86.3,73.6,30.00,SE,139,1.0,2.0,66,0.00,,---,0.00,VWS V14.00,2013-08-27 00:25:00,
2013-08-26 19:30:00,85.7,73.5,30.00,SE,139,3.0,3.0,67,0.00,,---,0.00,VWS V14.00,2013-08-27 00:30:00,
2013-08-26 19:35:00,85.1,73.4,30.00,SE,139,2.0,3.0,68,0.00,,---,0.00,VWS V14.00,2013-08-27 00:35:00,
2013-08-26 19:40:00,84.6,73.3,30.00,SE,139,1.0,3.0,69,0.00,,---,0.00,VWS V14.00,2013-08-27 00:40:00,
2013-08-26 19:45:00,84.1,73.3,30.00,SE,139,2.0,3.0,70,0.00,,---,0.00,VWS V14.00,2013-08-27 00:45:00,
2013-08-26 19:50:00,83.6,72.8,30.01,SE,139,3.0,3.0,70,0.00,,---,0.00,VWS V14.00,2013-08-27 00:50:00,
2013-08-26 19:55:00,83.2,72.8,30.00,SE,139,2.0,3.0,71,0.00,,---,0.00,VWS V14.00,2013-08-27 00:55:00,
2013-08-26 20:00:00,82.8,72.4,30.01,SE,139,3.0,3.0,71,0.00,,---,0.00,VWS V14.00,2013-08-27 01:00:00,
2013-08-26 20:05:00,82.4,72.5,30.01,SE,139,2.0,3.0,72,0.00,,---,0.00,VWS V14.00,2013-08-27 01:05:00,
2013-08-26 20:10:00,82.1,72.6,30.01,SE,139,3.0,4.0,73,0.00,,---,0.00,VWS V14.00,2013-08-27 01:10:00,
2013-08-26 20:15:00,81.7,72.2,30.01,SE,139,2.0,4.0,73,0.00,,---,0.00,VWS V14.00,2013-08-27 01:15:00,
2013-08-26 20:20:00,81.4,71.9,30.01,SE,139,3.0,3.0,73,0.00,,---,0.00,VWS V14.00,2013-08-27 01:20:00,
2013-08-26 20:25:00,81.3,72.2,30.01,SE,139,1.0,3.0,74,0.00,,---,0.00,VWS V14.00,2013-08-27 01:25:00,
2013-08-26 20:30:00,81.1,72.0,30.01,SE,139,2.0,2.0,74,0.00,,---,0.00,VWS V14.00,2013-08-27 01:30:00,
2013-08-26 20:35:00,81.0,71.9,30.02,SE,139,0.0,3.0,74,0.00,,---,0.00,VWS V14.00,2013-08-27 01:35:00,
2013-08-26 20:40:00,80.8,71.7,30.02,SE,139,0.0,0.0,74,0.00,,---,0.00,VWS V14.00,2013-08-27 01:40:00,
2013-08-26 20:45:00,80.7,72.0,30.02,SE,139,1.0,2.0,75,0.00,,---,0.00,VWS V14.00,2013-08-27 01:45:00,
2013-08-26 20:50:00,80.5,71.8,30.02,SE,139,2.0,3.0,75,0.00,,---,0.00,VWS V14.00,2013-08-27 01:50:00,
2013-08-26 20:55:00,80.4,71.8,30.02,SE,139,1.0,3.0,75,0.00,,---,0.00,VWS V14.00,2013-08-27 01:55:00,
2013-08-26 21:00:00,80.2,71.9,30.02,SE,139,0.0,2.0,76,0.00,,---,0.00,VWS V14.00,2013-08-27 02:00:00,
2013-08-26 21:05:00,80.0,71.8,30.03,SE,139,0.0,0.0,76,0.00,,---,0.00,VWS V14.00,2013-08-27 02:05:00,
2013-08-26 21:10:00,79.7,71.9,30.03,SE,139,0.0,0.0,77,0.00,,---,0.00,VWS V14.00,2013-08-27 02:10:00,
2013-08-26 21:15:00,79.5,71.7,30.03,SE,139,0.0,0.0,77,0.00,,---,0.00,VWS V14.00,2013-08-27 02:15:00,
2013-08-26 21:20:00,79.3,71.8,30.03,SE,139,1.0,3.0,78,0.00,,---,0.00,VWS V14.00,2013-08-27 02:20:00,
2013-08-26 21:25:00,79.2,71.8,30.03,SE,139,2.0,3.0,78,0.00,,---,0.00,VWS V14.00,2013-08-27 02:25:00,
2013-08-26 21:30:00,79.1,71.3,30.03,SE,139,3.0,4.0,77,0.00,,---,0.00,VWS V14.00,2013-08-27 02:30:00,
2013-08-26 21:35:00,79.1,70.9,30.03,SE,139,3.0,4.0,76,0.00,,---,0.00,VWS V14.00,2013-08-27 02:35:00,
2013-08-26 21:40:00,79.2,71.0,30.03,SE,139,2.0,4.0,76,0.00,,---,0.00,VWS V14.00,2013-08-27 02:40:00,
2013-08-26 21:45:00,79.2,70.6,30.03,SE,139,2.0,3.0,75,0.00,,---,0.00,VWS V14.00,2013-08-27 02:45:00,
2013-08-26 21:50:00,79.1,70.5,30.03,SE,139,3.0,4.0,75,0.00,,---,0.00,VWS V14.00,2013-08-27 02:50:00,
2013-08-26 21:55:00,79.0,70.4,30.03,SE,139,3.0,4.0,75,0.00,,---,0.00,VWS V14.00,2013-08-27 02:55:00,
2013-08-26 22:00:00,78.9,69.9,30.03,SE,139,4.0,5.0,74,0.00,,---,0.00,VWS V14.00,2013-08-27 03:00:00,
2013-08-26 22:05:00,78.9,69.9,30.03,SE,139,2.0,5.0,74,0.00,,---,0.00,VWS V14.00,2013-08-27 03:05:00,
2013-08-26 22:10:00,78.9,69.5,30.03,SE,139,3.0,5.0,73,0.00,,---,0.00,VWS V14.00,2013-08-27 03:10:00,
2013-08-26 22:15:00,78.9,69.5,30.03,SE,139,3.0,4.0,73,0.00,,---,0.00,VWS V14.00,2013-08-27 03:15:00,
2013-08-26 22:20:00,78.8,69.4,30.03,SE,139,3.0,5.0,73,0.00,,---,0.00,VWS V14.00,2013-08-27 03:20:00,
2013-08-26 22:25:00,78.7,68.9,30.03,SE,139,4.0,5.0,72,0.00,,---,0.00,VWS V14.00,2013-08-27 03:25:00,
2013-08-26 22:30:00,78.7,68.9,30.03,SE,139,3.0,4.0,72,0.00,,---,0.00,VWS V14.00,2013-08-27 03:30:00,
2013-08-26 22:35:00,78.6,68.8,30.03,SE,139,4.0,4.0,72,0.00,,---,0.00,VWS V14.00,2013-08-27 03:35:00,
2013-08-26 22:40:00,78.4,68.6,30.03,SE,139,4.0,5.0,72,0.00,,---,0.00,VWS V14.00,2013-08-27 03:40:00,
2013-08-26 22:45:00,78.3,68.5,30.03,SE,139,3.0,5.0,72,0.00,,---,0.00,VWS V14.00,2013-08-27 03:45:00,
2013-08-26 22:50:00,78.2,68.4,30.03,SE,139,4.0,5.0,72,0.00,,---,0.00,VWS V14.00,2013-08-27 03:50:00,
2013-08-26 22:55:00,78.0,68.2,30.03,SE,139,3.0,5.0,72,0.00,,---,0.00,VWS V14.00,2013-08-27 03:55:00,
2013-08-26 23:00:00,77.9,68.2,30.03,SE,139,4.0,6.0,72,0.00,,---,0.00,VWS V14.00,2013-08-27 04:00:00,
2013-08-26 23:01:00,77.9,68.2,30.03,SE,139,3.0,6.0,72,0.00,,---,0.00,VWS V14.00,2013-08-27 04:01:00,
2013-08-26 23:06:00,77.8,68.1,30.03,SE,139,3.0,5.0,72,0.00,,---,0.00,VWS V14.00,2013-08-27 04:06:00,
2013-08-26 23:11:00,77.7,68.0,30.02,SE,139,3.0,5.0,72,0.00,,---,0.00,VWS V14.00,2013-08-27 04:11:00,
2013-08-26 23:16:00,77.6,67.9,30.02,SE,139,4.0,5.0,72,0.00,,---,0.00,VWS V14.00,2013-08-27 04:16:00,
2013-08-26 23:21:00,77.4,67.3,30.02,SE,139,3.0,5.0,71,0.00,,---,0.00,VWS V14.00,2013-08-27 04:21:00,
2013-08-26 23:26:00,77.3,67.6,30.02,SE,139,2.0,5.0,72,0.00,,---,0.00,VWS V14.00,2013-08-27 04:26:00,
2013-08-26 23:31:00,77.1,67.4,30.02,SE,139,2.0,4.0,72,0.00,,---,0.00,VWS V14.00,2013-08-27 04:31:00,
2013-08-26 23:36:00,76.9,67.2,30.02,SE,139,3.0,4.0,72,0.00,,---,0.00,VWS V14.00,2013-08-27 04:36:00,
2013-08-26 23:41:00,76.8,67.1,30.02,SE,139,3.0,6.0,72,0.00,,---,0.00,VWS V14.00,2013-08-27 04:41:00,
2013-08-26 23:46:00,76.6,66.9,30.02,SE,139,3.0,4.0,72,0.00,,---,0.00,VWS V14.00,2013-08-27 04:46:00,
2013-08-26 23:51:00,76.4,67.1,30.02,SE,139,3.0,5.0,73,0.00,,---,0.00,VWS V14.00,2013-08-27 04:51:00,
2013-08-26 23:56:00,76.2,66.9,30.02,SE,139,2.0,5.0,73,0.00,,---,0.00,VWS V14.00,2013-08-27 04:56:00,